Weather History for Litchfield, MN

Change the Weather History Date:

Wednesday, January 23, 2013

  Actual Average Record
Temperature  
Mean Temperature 2 °F -  
Max Temperature 12 °F 23 °F 50 °F (1981)
Min Temperature -7 °F 4 °F -26 °F (1963)
Degree Days  
Heating Degree Days 62    
Moisture  
Dew Point -3 °F    
Average Humidity 72    
Maximum Humidity 92    
Minimum Humidity 55    
Precipitation  
Precipitation 0.00 in - - ()
Sea Level Pressure  
Sea Level Pressure 30.29 in    
Wind  
Wind Speed 6 mph (NW)    
Max Wind Speed 25 mph    
Max Gust Speed 37 mph    
Visibility 10 miles    
Events Snow    
Averages and records for this station are not official NWS values.
T = Trace of Precipitation, MM = Missing Value Source: NWS Daily Summary

Daily Weather History Graph

Daily Weather History Graph

Search for Another Location

Airport:

Trip Planner

Search our weather history database for the weather conditions in past years. The results will help you decide how hot, cold, wet, or windy it might be!

Date:

Astronomy

Jan. 23, 2013 Rise Set
Actual Time 7:46 AM CST 5:13 PM CST
Civil Twilight 7:14 AM CST 5:45 PM CST
Nautical Twilight 6:39 AM CST 6:21 PM CST
Astronomical Twilight 6:04 AM CST 6:56 PM CST
Moon 2:22 PM CST (1/23) 5:01 AM CST (1/23)
Length of Visible Light 10h 30m
Length of Day
9h 26m
Waxing Gibbous, 89% of the Moon is Illuminated
Jan 23
Waxing Gibbous
Jan 26
Full
Feb 3
Last Quarter
Feb 10
New
Feb 17
First Quarter

Hourly Weather History & Observations

Time (CST) Temp. Windchill Dew Point Humidity Pressure Visibility Wind Dir Wind Speed Gust Speed Precip Events Conditions
12:13 AM 6.8 °F - -2.2 °F 67% 30.19 in 10.0 mi Calm Calm - N/A   Overcast
12:33 AM 6.8 °F - -0.4 °F 72% 30.18 in 10.0 mi Calm Calm - N/A   Overcast
12:53 AM 6.8 °F - -0.4 °F 72% 30.17 in 10.0 mi Calm Calm - N/A   Overcast
1:13 AM 6.8 °F - -0.4 °F 72% 30.17 in 10.0 mi Calm Calm - N/A   Overcast
1:33 AM 6.8 °F - -0.4 °F 72% 30.17 in 10.0 mi Calm Calm - N/A   Overcast
1:53 AM 6.8 °F - 1.4 °F 79% 30.16 in 10.0 mi Calm Calm - N/A   Overcast
2:13 AM 6.8 °F - 1.4 °F 79% 30.16 in 10.0 mi Calm Calm - N/A   Overcast
2:33 AM 6.8 °F - 1.4 °F 79% 30.16 in 10.0 mi Calm Calm - N/A   Overcast
2:53 AM 8.6 °F - 1.4 °F 73% 30.15 in 10.0 mi Calm Calm - N/A Snow Light Snow
3:13 AM 8.6 °F - 3.2 °F 79% 30.15 in 10.0 mi Calm Calm - N/A Snow Light Snow
3:33 AM 8.6 °F - 3.2 °F 79% 30.15 in 7.0 mi Calm Calm - N/A Snow Light Snow
3:53 AM 8.6 °F - 3.2 °F 79% 30.14 in 7.0 mi Calm Calm - N/A Snow Light Snow
4:13 AM 8.6 °F - 5.0 °F 85% 30.13 in 10.0 mi Calm Calm - N/A Snow Light Snow
4:33 AM 8.6 °F - 6.8 °F 92% 30.12 in 10.0 mi Calm Calm - N/A   Overcast
4:53 AM 8.6 °F - 6.8 °F 92% 30.12 in 10.0 mi Calm Calm - N/A Snow Light Snow
5:13 AM 8.6 °F - 6.8 °F 92% 30.12 in 10.0 mi Calm Calm - N/A   Overcast
5:33 AM 8.6 °F - 6.8 °F 92% 30.12 in 10.0 mi Calm Calm - N/A   Overcast
5:53 AM 8.6 °F - 6.8 °F 92% 30.13 in 10.0 mi Calm Calm - N/A   Overcast
6:13 AM 6.8 °F - 5.0 °F 92% 30.13 in 10.0 mi Calm Calm - N/A   Scattered Clouds
6:32 AM 6.8 °F - 5.0 °F 92% 30.14 in 10.0 mi Calm Calm - N/A   Unknown
6:53 AM 6.8 °F - 3.2 °F 85% 30.14 in 10.0 mi Calm Calm - N/A   Clear
7:13 AM 6.8 °F -0.1 °F 5.0 °F 92% 30.14 in 10.0 mi West 3.5 mph - N/A   Mostly Cloudy
7:33 AM 8.6 °F 2.0 °F 6.8 °F 92% 30.14 in 10.0 mi West 3.5 mph - N/A   Overcast
7:53 AM 8.6 °F 0.1 °F 6.8 °F 92% 30.14 in 10.0 mi West 4.6 mph - N/A   Overcast
8:13 AM 8.6 °F 2.0 °F 6.8 °F 92% 30.14 in 10.0 mi West 3.5 mph - N/A   Overcast
8:33 AM 8.6 °F -2.6 °F 6.8 °F 92% 30.14 in 10.0 mi WNW 6.9 mph - N/A   Overcast
8:53 AM 8.6 °F -4.7 °F 6.8 °F 92% 30.15 in 10.0 mi WNW 9.2 mph - N/A   Overcast
9:12 AM 8.6 °F -4.7 °F 6.8 °F 92% 30.16 in 10.0 mi WNW 9.2 mph - N/A   Scattered Clouds
9:33 AM 10.4 °F -3.3 °F 6.8 °F 85% 30.17 in 10.0 mi WNW 10.4 mph - N/A   Mostly Cloudy
9:53 AM 10.4 °F -4.1 °F 6.8 °F 85% 30.18 in 10.0 mi NW 11.5 mph 17.3 mph N/A   Scattered Clouds
10:12 AM 10.4 °F -4.1 °F 6.8 °F 85% 30.18 in 10.0 mi WNW 11.5 mph 17.3 mph N/A   Clear
10:33 AM 10.4 °F -4.8 °F 6.8 °F 85% 30.19 in 10.0 mi NW 12.7 mph 17.3 mph N/A   Clear
10:53 AM 12.2 °F -3.1 °F 6.8 °F 79% 30.20 in 10.0 mi NW 13.8 mph 24.2 mph N/A   Clear
11:12 AM 12.2 °F -4.8 °F 5.0 °F 73% 30.21 in 10.0 mi NW 17.3 mph 23.0 mph N/A   Clear
11:33 AM 10.4 °F -8.2 °F 3.2 °F 73% 30.21 in 10.0 mi NW 19.6 mph 27.6 mph N/A   Clear
11:53 AM 10.4 °F -8.2 °F 3.2 °F 73% 30.22 in 10.0 mi NW 19.6 mph 27.6 mph N/A   Clear
12:12 PM 10.4 °F -7.2 °F 1.4 °F 67% 30.23 in 10.0 mi NW 17.3 mph 29.9 mph N/A   Clear
12:33 PM 10.4 °F -8.2 °F -0.4 °F 62% 30.22 in 10.0 mi NW 19.6 mph 29.9 mph N/A   Clear
12:53 PM 8.6 °F -11.9 °F -2.2 °F 62% 30.23 in 7.0 mi NNW 23.0 mph 31.1 mph N/A   Clear
1:13 PM 8.6 °F -9.5 °F -2.2 °F 62% 30.24 in 10.0 mi NW 17.3 mph 34.5 mph N/A   Clear
1:33 PM 8.6 °F -11.4 °F -2.2 °F 62% 30.25 in 10.0 mi NW 21.9 mph 28.8 mph N/A   Clear
1:53 PM 6.8 °F -13.8 °F -5.8 °F 56% 30.26 in 7.0 mi NW 21.9 mph 36.8 mph N/A   Clear
2:13 PM 6.8 °F -13.8 °F -5.8 °F 56% 30.27 in 7.0 mi NW 21.9 mph 36.8 mph N/A   Clear
2:33 PM 6.8 °F -13.4 °F -5.8 °F 56% 30.29 in 10.0 mi NW 20.7 mph 29.9 mph N/A   Clear
2:53 PM 5.0 °F -16.2 °F -7.6 °F 56% 30.30 in 10.0 mi NW 21.9 mph 29.9 mph N/A   Clear
3:13 PM 3.2 °F -19.9 °F -9.4 °F 56% 30.31 in 10.0 mi NW 25.3 mph 32.2 mph N/A   Clear
3:33 PM 3.2 °F -17.6 °F -9.4 °F 56% 30.34 in 10.0 mi NW 19.6 mph 28.8 mph N/A   Clear
3:53 PM 1.4 °F -18.8 °F -11.2 °F 56% 30.35 in 10.0 mi NW 17.3 mph 26.5 mph N/A   Clear
4:13 PM 1.4 °F -18.2 °F -11.2 °F 56% 30.36 in 10.0 mi NW 16.1 mph 27.6 mph N/A   Clear
4:33 PM 1.4 °F -19.9 °F -11.2 °F 56% 30.38 in 10.0 mi NW 19.6 mph 24.2 mph N/A   Clear
4:53 PM -0.4 °F -18.4 °F -11.2 °F 60% 30.40 in 10.0 mi NW 12.7 mph - N/A   Clear
5:13 PM -0.4 °F -18.4 °F -11.2 °F 60% 30.42 in 10.0 mi NW 12.7 mph 18.4 mph N/A   Clear
5:33 PM -0.4 °F -19.2 °F -11.2 °F 60% 30.43 in 10.0 mi NW 13.8 mph 21.9 mph N/A   Clear
5:53 PM -0.4 °F -17.6 °F -13.0 °F 55% 30.45 in 10.0 mi NW 11.5 mph - N/A   Clear
6:13 PM -2.2 °F -19.9 °F -13.0 °F 60% 30.44 in 10.0 mi NW 11.5 mph 18.4 mph N/A   Clear
6:33 PM -2.2 °F -19.9 °F -13.0 °F 60% 30.46 in 10.0 mi NW 11.5 mph 19.6 mph N/A   Clear
6:53 PM -2.2 °F -20.7 °F -14.8 °F 55% 30.46 in 10.0 mi NNW 12.7 mph - N/A   Clear
7:12 PM -2.2 °F -20.7 °F -14.8 °F 55% 30.47 in 10.0 mi NNW 12.7 mph 18.4 mph N/A   Clear
7:33 PM -2.2 °F -18.9 °F -14.8 °F 55% 30.49 in 10.0 mi NW 10.4 mph - N/A   Clear
7:53 PM -4.0 °F -21.2 °F -14.8 °F 60% 30.49 in 10.0 mi NNW 10.4 mph - N/A   Clear
8:12 PM -4.0 °F -23.0 °F -14.8 °F 60% 30.50 in 10.0 mi NNW 12.7 mph - N/A   Clear
8:33 PM -5.8 °F -22.4 °F -14.8 °F 65% 30.51 in 10.0 mi NNW 9.2 mph - N/A   Clear
9:13 PM -5.8 °F -25.2 °F -14.8 °F 65% 30.52 in 10.0 mi NNW 12.7 mph - N/A   Clear
9:33 PM -5.8 °F -22.4 °F -14.8 °F 65% 30.53 in 10.0 mi NNW 9.2 mph - N/A   Clear
9:53 PM -7.6 °F -22.1 °F -16.6 °F 65% 30.54 in 10.0 mi North 6.9 mph - N/A   Clear
10:13 PM -7.6 °F -22.1 °F -16.6 °F 65% 30.56 in 10.0 mi NNW 6.9 mph - N/A   Clear
10:33 PM -7.6 °F -20.6 °F -16.6 °F 65% 30.56 in 10.0 mi North 5.8 mph - N/A   Clear
10:52 PM -7.6 °F -22.1 °F -16.6 °F 65% 30.57 in 10.0 mi North 6.9 mph - N/A   Clear
11:13 PM -5.8 °F -21.2 °F -16.6 °F 60% 30.58 in 10.0 mi North 8.1 mph - N/A   Clear
11:33 PM -7.6 °F -25.7 °F -16.6 °F 65% 30.58 in 10.0 mi NNE 10.4 mph - N/A   Clear
11:52 PM -7.6 °F -23.4 °F -16.6 °F 65% 30.59 in 10.0 mi NNE 8.1 mph - N/A   Clear